Weather History for Athens, GA

Change the Weather History Date:

Thursday, November 8, 2012

  Actual Average Record
Temperature  
Mean Temperature 51 °F 56 °F  
Max Temperature 65 °F 68 °F 83 °F (2005)
Min Temperature 36 °F 45 °F 24 °F (1884)
Degree Days  
Heating Degree Days 14 9  
Month to date heating degree days 92 66  
Since 1 July heating degree days 215 201  
Moisture  
Dew Point 35 °F    
Average Humidity 63    
Maximum Humidity 100    
Minimum Humidity 26    
Precipitation  
Precipitation 0.00 in 0.12 in 1.68 in (1892)
Month to date precipitation 0.43 0.93  
Year to date precipitation 30.97 39.71  
Snow  
Snow 0.00 in 0.00 in 0.00 in (2002)
Month to date snowfall 0.0 0.0  
Since 1 July snowfall 0.0 0.0  
Since 1 September snowfall 0.0 0.0  
Snow Depth -    
Sea Level Pressure  
Sea Level Pressure 30.12 in    
Wind  
Wind Speed 4 mph (WNW)    
Max Wind Speed 10 mph    
Max Gust Speed 14 mph    
Visibility 6 miles    
Events      
T = Trace of Precipitation, MM = Missing Value Source: NWS Daily Summary

Daily Weather History Graph

Daily Weather History Graph

Search for Another Location

Airport:

Trip Planner

Search our weather history database for the weather conditions in past years. The results will help you decide how hot, cold, wet, or windy it might be!

Date:

Astronomy

Nov. 08, 2012 Rise Set
Actual Time 6:59 AM EST 5:34 PM EST
Civil Twilight 6:33 AM EST 6:00 PM EST
Nautical Twilight 6:03 AM EST 6:30 PM EST
Astronomical Twilight 5:34 AM EST 6:59 PM EST
Moon 1:09 AM EST (11/8) 2:00 PM EST (11/8)
Length of Visible Light 11h 27m
Length of Day
10h 34m
Waning Crescent, 33% of the Moon is Illuminated
Nov 8
Waning Crescent
Nov 13
New
Nov 20
First Quarter
Nov 28
Full
Dec 6
Last Quarter

Hourly Weather History & Observations

Time (EST) Temp. Windchill Dew Point Humidity Pressure Visibility Wind Dir Wind Speed Gust Speed Precip Events Conditions
12:51 AM 39.9 °F 35.8 °F 37.0 °F 89% 30.04 in 6.0 mi NW 5.8 mph - N/A   Clear
1:51 AM 39.0 °F 35.7 °F 37.0 °F 93% 30.04 in 6.0 mi NW 4.6 mph - N/A   Clear
2:51 AM 37.0 °F 34.5 °F 36.0 °F 96% 30.05 in 5.0 mi WNW 3.5 mph - N/A   Clear
3:51 AM 37.0 °F 32.4 °F 36.0 °F 96% 30.06 in 5.0 mi NW 5.8 mph - N/A   Clear
4:51 AM 37.9 °F 32.7 °F 36.0 °F 93% 30.07 in 6.0 mi NW 6.9 mph - N/A   Clear
5:51 AM 37.9 °F 33.5 °F 36.0 °F 93% 30.09 in 5.0 mi NW 5.8 mph - N/A   Clear
6:51 AM 36.0 °F 31.1 °F 35.1 °F 97% 30.12 in 4.0 mi WNW 5.8 mph - N/A   Clear
7:29 AM 35.6 °F 31.7 °F 35.6 °F 100% 30.11 in 2.5 mi NW 4.6 mph - N/A   Clear
7:39 AM 37.4 °F 32.8 °F 35.6 °F 93% 30.12 in 3.0 mi NW 5.8 mph - N/A   Clear
7:51 AM 37.9 °F 34.4 °F 36.0 °F 93% 30.14 in 4.0 mi NW 4.6 mph - N/A   Clear
8:51 AM 44.1 °F 40.8 °F 39.0 °F 82% 30.16 in 4.0 mi NW 5.8 mph - N/A   Haze
9:51 AM 48.9 °F - 39.0 °F 69% 30.17 in 5.0 mi WNW 3.5 mph - N/A   Haze
10:51 AM 55.9 °F - 39.0 °F 53% 30.17 in 6.0 mi Calm Calm - N/A   Haze
11:51 AM 59.0 °F - 35.1 °F 41% 30.16 in 7.0 mi West 4.6 mph - N/A   Clear
12:51 PM 62.1 °F - 35.1 °F 37% 30.13 in 7.0 mi Calm Calm - N/A   Clear
1:51 PM 64.0 °F - 33.1 °F 31% 30.11 in 7.0 mi Variable 3.5 mph - N/A   Clear
2:51 PM 64.0 °F - 30.0 °F 28% 30.09 in 7.0 mi West 4.6 mph - N/A   Clear
3:51 PM 64.0 °F - 28.9 °F 27% 30.10 in 7.0 mi WNW 6.9 mph - N/A   Clear
4:51 PM 62.6 °F - 30.2 °F 30% 30.11 in 7.0 mi WNW 4.6 mph - N/A   Clear
5:51 PM 55.0 °F - 30.9 °F 40% 30.13 in 8.0 mi WSW 3.5 mph - N/A   Clear
6:51 PM 51.8 °F - 33.8 °F 50% 30.13 in 8.0 mi SW 3.5 mph - N/A   Clear
7:51 PM 51.1 °F - 35.1 °F 54% 30.16 in 8.0 mi WSW 3.5 mph - N/A   Clear
8:51 PM 48.0 °F - 37.0 °F 66% 30.16 in 7.0 mi West 3.5 mph - N/A   Clear
9:51 PM 46.9 °F - 37.0 °F 68% 30.17 in 7.0 mi West 3.5 mph - N/A   Clear
10:51 PM 42.8 °F - 37.4 °F 81% 30.16 in 6.0 mi Calm Calm - N/A   Haze
11:51 PM 39.9 °F - 37.0 °F 89% 30.17 in 6.0 mi Calm Calm - N/A   Clear